Location: Catstown
(52.4386°N, 7.2633°W)
Time: 23:14:16
(UTC+00:00)

CZ-2C R/B - Pass Details

Date: 18 September 2020
Orbit: 704 x 908 km, 98.1° (Epoch: 30 October)

Event Time Altitude Azimuth Distance (km) Brightness Sun altitude
Rises 19:38:22 0° 178° (S) 3,259 6.1 -10.2°
Reaches altitude 10° 19:40:41 10° 182° (S) 2,365 5.4 -10.5°
Maximum altitude 19:45:50 55° 261° (W) 990 3.9 -11.3°
Drops below altitude 10° 19:51:19 10° 339° (NNW) 2,513 6.2 -12.1°
Sets 19:53:50 0° 344° (NNW) 3,480 6.9 -12.4°
